PICOSAT 9               
1 26930U 01043B   19264.54203132 -.00000049  00000-0  13239-4 0  9996
2 26930  67.0004  72.3746 0005692 311.0301  49.0307 14.30700236938817
PCSAT (NO-44)           
1 26931U 01043C   19264.23427897 -.00000032  00000-0  19369-4 0  9991
2 26931  67.0501 119.7151 0007439 270.9714  89.0535 14.30552775938492
SAPPHIRE (NO-45)        
1 26932U 01043D   19264.89412125 -.00000048  00000-0  13289-4 0  9994
2 26932  67.0550 121.5665 0007694 285.5948  74.4304 14.30312882938598